Wind_Speed
3 2 5 7 10 13 16 18 20 24 26 28 30 31 31 32 30 29 31 34 34 32 30 29 31 34 35 38 38 37 36 36 42 40 33 31 33 35 31 28 31 34 33
2 1 5 9 12 14 18 20 23 25 26 28 29 29 29 29 28 29 31 28 28 28 31 33 33 32 33 33 34 37 38 35 36 42 38 40 41 31 27 31 33 32 36
2 4 6 10 14 17 20 22 24 26 26 26 27 28 26 26 26 27 27 27 28 28 30 32 36 37 37 36 37 38 41 40 42 41 39 38 34 32 41 36 34 31 27
6 9 13 16 18 21 23 24 24 24 24 28 27 24 23 23 24 25 28 31 36 38 38 40 43 43 46 41 41 38 37 39 38 37 40 35 31 35 29 28 30 27 28
10 12 14 17 18 20 20 22 23 25 29 24 21 21 22 25 25 25 30 33 37 43 44 42 44 43 40 41 43 43 44 45 44 42 41 39 37 27 29 35 27 29 26
11 12 14 16 18 19 20 20 22 25 23 23 22 22 25 30 31 29 33 38 42 45 42 45 46 44 42 41 40 42 42 41 44 41 39 38 43 40 25 26 28 22 21
13 14 15 17 18 18 20 22 24 25 23 21 23 26 28 27 29 32 36 37 39 40 48 44 38 37 39 39 39 41 42 42 43 44 47 45 43 42 33 24 23 23 26
14 15 16 17 19 21 25 27 27 24 20 21 25 27 27 29 31 34 31 34 38 42 33 35 38 42 40 40 40 38 39 38 40 39 41 40 39 37 45 36 31 31 31
15 16 18 20 23 25 25 25 23 22 19 21 26 26 26 31 35 30 32 35 32 31 32 41 43 45 42 36 33 37 39 38 35 36 41 41 44 35 31 35 35 31 33
16 19 22 21 24 25 25 24 23 20 19 21 25 25 30 35 31 27 22 27 33 36 42 44 41 39 31 23 25 32 37 37 29 31 29 31 31 35 31 35 33 31 30
20 22 23 22 23 24 23 22 19 21 23 24 26 28 30 31 25 22 23 26 31 38 38 38 33 25 20 22 26 32 37 34 33 34 32 32 30 23 29 35 37 34 33
21 22 21 20 22 21 20 20 16 20 21 23 25 29 29 24 19 24 24 28 34 30 28 29 26 22 25 21 20 23 21 24 30 32 32 31 29 28 28 28 31 32 31
19 21 20 19 19 17 18 16 16 18 21 22 22 26 28 24 17 23 30 28 22 20 22 16 13 17 16 12 10 15 14 14 14 26 29 29 27 28 26 27 28 27 26
21 20 20 18 18 17 17 15 17 18 17 17 22 25 25 24 20 24 26 21 13 11 11 16 23 20 13 11 7 7 19 20 17 5 12 15 17 19 20 22 23 24 28
23 20 19 17 15 19 15 15 15 14 14 19 21 20 23 25 25 24 18 11 15 14 23 23 11 13 15 11 10 9 11 21 23 21 18 12 16 20 29 32 24 27 30
32 23 19 16 17 17 19 19 13 12 12 10 12 16 21 24 25 16 8 9 13 18 21 9 15 14 13 12 12 15 9 7 21 25 21 19 9 13 28 30 30 34 34
34 28 19 17 18 19 19 20 19 15 9 9 13 10 12 19 17 10 8 10 12 11 13 19 15 15 25 18 15 15 10 7 4 6 18 25 21 35 44 41 40 38 37
31 31 18 16 16 19 19 18 16 19 19 13 13 15 16 15 10 2 6 10 10 12 21 27 10 15 16 22 23 12 16 17 14 9 13 17 18 23 34 35 34 37 35
30 33 21 16 16 18 19 19 17 17 19 18 18 17 19 11 9 8 4 5 11 22 29 18 20 14 15 13 16 23 14 21 18 19 15 15 16 18 21 23 26 24 25
26 28 27 22 19 18 19 21 21 20 21 21 23 25 22 11 10 8 4 6 12 18 28 28 22 20 19 18 23 23 31 26 27 25 21 16 19 21 21 21 23 30 31
19 25 28 27 26 22 21 22 21 22 23 23 23 23 21 23 15 9 3 4 12 15 28 15 24 19 32 25 28 34 28 33 33 27 24 22 19 20 19 20 21 24 20
17 19 24 27 28 27 26 24 23 21 22 23 22 22 20 25 17 13 16 9 15 25 23 25 28 23 27 30 26 25 35 37 34 30 29 21 21 19 18 17 18 17 14
17 18 18 21 24 28 29 29 27 25 24 23 23 23 25 25 22 20 21 17 17 32 38 32 31 22 22 27 27 28 29 30 31 29 27 29 22 19 16 14 14 13 11
17 17 18 19 20 21 26 29 30 28 27 27 26 25 24 22 23 21 17 12 18 27 29 30 27 22 19 19 21 22 23 23 24 26 22 21 21 16 16 15 13 12 9
17 18 18 19 23 22 20 25 25 29 29 28 29 27 25 24 22 22 19 18 16 19 20 23 21 16 16 14 13 15 17 18 19 21 23 19 21 18 11 10 9 11 9
18 17 20 25 24 25 25 22 22 24 26 26 27 28 28 26 24 25 22 21 21 16 13 14 12 7 8 9 9 10 10 12 13 16 20 17 16 17 15 10 9 7 5
Wind_Direction
96 241 260 263 276 284 287 291 288 289 291 291 291 292 293 296 294 293 289 291 292 293 291 289 287 287 284 284 283 281 280 279 285 284 284 277 278 273 275 272 278 276 278
84 288 290 289 287 285 286 285 289 290 292 295 298 297 299 296 294 290 296 293 293 291 289 291 289 287 283 284 283 282 282 280 286 290 287 279 271 268 270 268 269 277 280
343 309 289 285 290 292 292 294 294 296 298 297 297 295 295 295 296 291 288 288 286 282 279 281 282 281 283 281 281 280 285 286 279 282 290 282 278 273 265 268 271 278 274
300 299 293 293 295 298 299 301 301 297 287 287 289 290 290 289 284 281 280 280 279 281 284 288 290 291 286 284 282 280 280 280 285 284 283 285 282 279 264 263 263 264 271
309 304 303 302 303 300 295 294 293 290 297 298 293 289 285 280 280 283 283 288 290 291 293 297 298 295 290 286 282 280 279 275 275 277 282 280 272 277 261 261 255 270 265
310 311 308 307 301 299 298 298 291 288 293 293 290 287 282 277 283 292 293 293 290 287 291 301 296 292 291 292 284 280 276 272 270 269 273 274 271 263 270 251 256 259 272
322 317 318 310 306 298 291 286 283 285 285 287 286 283 285 291 293 294 299 297 295 293 297 295 297 294 292 291 285 284 277 270 268 265 268 269 265 257 257 263 252 258 262
321 319 313 310 306 300 292 291 292 291 279 287 285 286 289 293 298 307 309 298 295 296 296 298 297 295 293 289 288 287 283 277 270 262 263 267 264 267 256 254 262 268 269
320 314 312 309 305 301 302 302 300 299 278 280 285 293 293 298 310 311 307 304 298 304 299 301 300 296 292 293 284 284 284 279 275 266 265 264 255 260 252 251 254 256 264
311 309 310 311 309 308 305 300 303 307 302 298 299 295 295 304 312 316 312 311 307 305 306 309 308 306 301 292 287 280 282 283 287 279 268 258 258 245 236 238 242 250 247
317 317 318 315 311 313 311 307 308 308 299 299 302 307 307 309 315 321 312 304 307 308 308 312 315 322 319 298 285 281 284 292 287 278 269 265 263 251 243 241 240 243 233
328 328 325 321 321 317 310 306 310 313 314 311 309 307 311 321 324 320 310 311 310 309 308 316 330 346 331 319 304 305 316 291 273 266 260 256 254 254 249 241 228 231 236
335 337 335 328 328 326 320 319 316 307 306 306 311 313 318 327 319 317 313 316 313 308 325 336 339 355 14 359 352 357 350 353 278 257 255 258 258 247 246 243 237 232 218
347 345 342 333 335 340 330 323 316 315 316 317 317 318 325 331 331 329 328 320 328 338 317 323 331 322 306 336 23 37 21 9 28 120 233 228 232 231 241 225 213 203 200
357 351 344 342 346 341 348 346 334 330 319 311 314 317 322 328 335 335 324 338 355 342 332 7 13 3 350 340 312 304 356 32 45 63 81 129 181 305 228 214 203 181 173
11 2 357 1 3 3 358 351 353 345 330 321 330 322 324 322 330 331 300 336 348 347 347 343 343 4 337 14 29 52 25 42 63 58 72 103 345 92 151 172 174 164 161
9 6 11 18 17 14 12 6 0 28 49 59 12 343 321 325 323 308 313 336 357 2 354 355 8 32 16 8 36 36 17 348 358 47 82 67 46 79 106 129 144 149 143
9 7 15 21 22 25 24 19 22 24 26 27 14 356 348 338 336 292 262 331 352 343 344 347 4 12 31 58 29 36 38 41 56 61 93 93 89 95 100 111 126 136 134
8 10 20 27 29 30 28 28 31 31 31 30 21 20 8 7 72 81 142 357 352 344 349 14 359 3 32 41 31 59 53 53 67 63 74 103 116 116 118 127 133 131 140
358 8 22 30 31 31 31 33 32 34 34 30 27 25 22 51 72 53 90 339 338 344 4 20 40 45 33 38 53 58 64 59 64 69 84 90 114 117 119 123 134 138 140
6 357 18 31 36 34 31 33 32 31 30 31 30 32 34 57 52 48 82 28 15 10 356 12 32 58 47 50 68 56 50 53 53 56 63 74 103 114 110 112 141 146 143
21 14 5 23 33 37 39 36 35 31 26 24 26 36 36 49 61 61 71 52 13 18 21 39 72 83 56 61 64 43 52 50 46 46 49 70 84 96 111 123 123 130 139
27 22 23 9 25 30 39 37 38 36 31 30 26 29 37 36 37 50 60 65 53 25 45 55 77 79 71 64 63 59 56 51 50 50 43 51 69 76 77 96 110 122 135
29 25 27 17 25 30 26 32 34 35 34 33 33 30 31 30 28 29 31 57 62 41 56 57 60 60 59 65 62 59 51 51 54 50 55 44 53 76 90 100 101 104 109
32 32 19 28 18 31 31 28 21 27 30 29 30 32 31 30 28 30 22 23 38 61 61 53 53 56 44 48 48 49 49 54 60 56 49 40 43 59 79 92 110 109 87
31 33 20 24 25 24 27 32 20 29 17 23 24 25 26 25 24 25 22 18 27 31 40 55 51 46 27 29 32 31 39 43 48 53 55 47 33 40 54 90 117 119 84
Height
1466 1467 1469 1471 1471 1472 1473 1472 1471 1471 1468 1466 1465 1464 1461 1460 1461 1459 1457 1454 1452 1451 1451 1448 1447 1446 1444 1442 1441 1438 1435 1433 1426 1423 1424 1425 1424 1425 1426 1426 1425 1426 1424
1470 1470 1470 1470 1471 1471 1469 1469 1467 1466 1463 1461 1457 1456 1453 1454 1454 1453 1449 1449 1445 1445 1444 1442 1439 1439 1437 1434 1431 1430 1427 1425 1422 1415 1415 1414 1416 1417 1417 1418 1418 1419 1418
1469 1471 1470 1469 1468 1466 1465 1463 1460 1458 1456 1454 1452 1451 1449 1450 1448 1447 1446 1444 1441 1438 1437 1433 1432 1431 1427 1425 1423 1421 1419 1416 1413 1409 1406 1407 1407 1408 1409 1409 1410 1410 1410
1465 1465 1464 1463 1463 1461 1460 1457 1455 1453 1451 1449 1448 1446 1447 1446 1445 1443 1439 1436 1434 1431 1428 1425 1424 1421 1417 1415 1413 1410 1409 1406 1406 1403 1399 1399 1399 1399 1400 1401 1401 1403 1403
1463 1462 1461 1461 1459 1458 1456 1454 1451 1447 1444 1443 1442 1442 1441 1440 1438 1436 1433 1429 1425 1420 1417 1415 1412 1409 1407 1405 1402 1399 1399 1397 1397 1395 1391 1391 1390 1391 1391 1394 1394 1395 1396
1461 1460 1458 1456 1455 1453 1450 1448 1445 1441 1440 1439 1437 1436 1435 1433 1431 1429 1425 1421 1416 1411 1407 1404 1401 1397 1394 1391 1389 1388 1387 1386 1384 1384 1383 1381 1381 1383 1384 1387 1388 1389 1389
1456 1456 1453 1451 1449 1447 1444 1441 1438 1435 1434 1433 1432 1430 1429 1426 1424 1421 1417 1412 1407 1403 1399 1394 1389 1386 1383 1379 1376 1374 1373 1373 1373 1373 1370 1370 1371 1374 1378 1379 1381 1382 1383
1453 1451 1449 1446 1443 1440 1436 1433 1431 1429 1427 1426 1425 1424 1422 1419 1416 1412 1408 1403 1398 1394 1390 1386 1381 1376 1372 1369 1365 1362 1360 1359 1359 1359 1358 1358 1360 1364 1368 1371 1374 1376 1377
1449 1446 1443 1440 1436 1432 1429 1426 1424 1422 1421 1420 1419 1417 1415 1412 1409 1405 1401 1396 1391 1386 1383 1377 1371 1365 1359 1358 1355 1352 1348 1345 1345 1345 1345 1346 1348 1352 1356 1363 1365 1369 1369
1443 1440 1436 1433 1430 1426 1424 1421 1420 1419 1416 1416 1413 1412 1409 1405 1402 1398 1395 1390 1384 1379 1373 1365 1358 1353 1347 1346 1345 1341 1337 1333 1332 1332 1333 1335 1336 1339 1344 1351 1357 1361 1364
1438 1434 1431 1428 1425 1422 1419 1417 1416 1414 1413 1411 1408 1406 1403 1400 1394 1392 1389 1385 1379 1372 1364 1357 1350 1344 1339 1338 1337 1333 1326 1323 1321 1322 1322 1323 1325 1330 1334 1340 1346 1351 1357
1434 1431 1427 1424 1421 1418 1415 1413 1412 1411 1409 1406 1403 1400 1397 1392 1390 1387 1383 1379 1374 1367 1360 1353 1346 1340 1334 1331 1328 1323 1318 1313 1310 1310 1311 1313 1317 1320 1325 1330 1336 1344 1349
1432 1427 1423 1421 1418 1416 1413 1410 1408 1407 1405 1402 1399 1396 1391 1388 1385 1382 1379 1373 1369 1363 1356 1350 1347 1342 1334 1328 1324 1320 1315 1309 1302 1300 1301 1304 1306 1312 1318 1324 1331 1337 1344
1429 1425 1421 1419 1416 1413 1410 1408 1405 1403 1401 1399 1396 1392 1387 1383 1380 1378 1374 1369 1366 1361 1357 1352 1347 1341 1333 1328 1323 1319 1315 1308 1298 1293 1295 1297 1300 1305 1311 1317 1324 1332 1339
1428 1423 1420 1417 1414 1410 1408 1405 1402 1401 1398 1396 1393 1389 1385 1380 1377 1375 1371 1367 1364 1362 1357 1353 1344 1339 1333 1327 1323 1320 1317 1311 1304 1299 1294 1293 1296 1294 1299 1310 1320 1329 1337
1428 1423 1419 1416 1413 1410 1406 1403 1401 1398 1395 1393 1392 1389 1385 1381 1375 1372 1369 1368 1366 1362 1356 1353 1345 1341 1335 1329 1326 1324 1320 1317 1311 1307 1302 1297 1296 1286 1292 1308 1320 1327 1335
1430 1423 1419 1417 1414 1411 1407 1403 1398 1396 1393 1393 1391 1387 1384 1379 1372 1367 1367 1367 1367 1363 1356 1354 1349 1345 1340 1332 1329 1327 1320 1317 1315 1314 1313 1305 1297 1295 1299 1311 1320 1331 1338
1432 1426 1421 1419 1416 1412 1408 1404 1401 1397 1395 1392 1390 1387 1382 1378 1373 1370 1365 1368 1367 1364 1360 1354 1352 1350 1346 1340 1337 1331 1325 1320 1317 1316 1317 1317 1316 1317 1317 1323 1330 1337 1343
1435 1429 1424 1421 1418 1414 1410 1406 1403 1400 1397 1394 1390 1386 1381 1377 1375 1374 1371 1373 1370 1365 1362 1356 1354 1352 1350 1345 1339 1336 1330 1326 1323 1324 1321 1324 1327 1328 1331 1336 1340 1344 1349
1438 1434 1428 1422 1419 1416 1412 1408 1405 1401 1399 1397 1393 1387 1383 1378 1376 1376 1374 1375 1374 1370 1364 1361 1358 1356 1353 1348 1347 1340 1338 1336 1333 1331 1332 1331 1332 1335 1337 1341 1346 1350 1357
1443 1437 1432 1427 1422 1418 1415 1412 1408 1404 1402 1399 1396 1392 1389 1383 1382 1379 1376 1378 1376 1371 1370 1364 1361 1363 1359 1356 1353 1350 1347 1344 1343 1342 1340 1341 1343 1345 1345 1348 1352 1356 1361
1447 1443 1436 1432 1427 1423 1419 1416 1412 1408 1404 1401 1398 1395 1391 1387 1385 1384 1381 1381 1381 1379 1373 1365 1369 1369 1370 1366 1361 1360 1355 1353 1352 1351 1348 1348 1348 1350 1352 1354 1357 1360 1364
1448 1445 1442 1437 1432 1429 1424 1420 1416 1412 1409 1404 1400 1397 1393 1390 1389 1387 1386 1386 1383 1382 1380 1375 1373 1373 1372 1372 1370 1367 1365 1363 1362 1361 1360 1357 1356 1358 1360 1360 1362 1365 1368
1449 1447 1444 1441 1436 1433 1429 1425 1421 1418 1413 1409 1405 1401 1398 1395 1392 1389 1389 1389 1385 1384 1378 1378 1377 1377 1378 1377 1376 1375 1374 1373 1372 1370 1368 1367 1367 1366 1366 1367 1369 1371 1374
1451 1449 1445 1442 1437 1434 1432 1430 1426 1422 1418 1414 1410 1406 1403 1400 1398 1395 1394 1393 1387 1386 1385 1384 1382 1382 1382 1381 1380 1380 1380 1380 1379 1378 1376 1375 1374 1373 1372 1373 1374 1376 1377
1453 1451 1448 1445 1441 1437 1434 1432 1430 1427 1423 1418 1415 1411 1408 1404 1401 1399 1397 1393 1390 1389 1386 1386 1385 1386 1386 1384 1383 1384 1383 1384 1383 1383 1382 1381 1380 1378 1377 1377 1378 1378 1379